Home   Weather   Wesseling   Past weeks

Flag for Germany Past Weather in Wesseling, North Rhine-Westphalia, Germany — Yesterday and Last 2 Weeks

Now
36 °F

Sunny.


Feels Like: 36 °F
Forecast: 19 / 34 °F
Wind: 2 mph from North

Location: Koeln / Bonn

Current Time: Jan 19, 2017 at 4:14:14 pm

Latest Report: Jan 19, 2017 at 3:20 pm


Visibility: 10 mi

Pressure: 30.60 "Hg

Humidity: 56%

Dew Point: 21 °F

Location of WesselingLocation

Past Weather in Wesseling — Graph

°F

Wesseling Temperature Yesterday

Maximum temperature yesterday: 32 °F (at 3:20 pm)
Minimum temperature yesterday: 12 °F (at 7:20 am)
Average temperature yesterday: 22 °F

High & Low Weather Summary for the Past Weeks

 TemperatureHumidityPressure
High46 °F (Jan 11, 4:20 pm)100% (Jan 5, 12:20 am)30.74 "Hg (Jan 5, 12:20 am)
Low12 °F (Jan 18, 7:20 am)51% (Jan 5, 3:20 pm)28.97 "Hg (Jan 13, 1:20 am)
Average31 °F87%30.20 "Hg
* Reported Jan 4 3:20 pm — Jan 19 3:20 pm, Wesseling, Weather by CustomWeather, © 2017

Note: Actual official high and low records may vary slightly from our data, if they occured in-between our weather recording intervals... More about our weather records

Advertising

Wesseling Weather History for the Previous 24 Hours

Scroll right to see more
 ConditionsComfort  
Time TempWeatherWind HumidityBarometerVisibility
3:20 pm
Thu, Jan 19
36 °FSunny.2 mph56%30.60 "Hg10 mi
2:50 pm34 °FPassing clouds.5 mph60%30.60 "HgN/A
2:20 pm36 °FPassing clouds.3 mph56%30.60 "HgN/A
1:50 pm34 °FPassing clouds.3 mph60%30.60 "HgN/A
1:20 pm34 °FPassing clouds.3 mph60%30.60 "HgN/A
12:50 pm32 °FSunny.1 mph64%30.63 "Hg10 mi
12:20 pm30 °FSunny.1 mph69%30.63 "Hg10 mi
11:50 am28 °FSunny.2 mph74%30.63 "Hg10 mi
11:20 am25 °FPassing clouds.3 mph80%30.66 "HgN/A
10:50 am25 °FPassing clouds.5 mph80%30.66 "HgN/A
10:20 am23 °FSunny.No wind80%30.66 "Hg10 mi
9:50 am21 °FSunny.2 mph86%30.66 "Hg10 mi
9:20 am18 °FSunny.3 mph86%30.66 "Hg10 mi
8:50 am14 °FPassing clouds.3 mph92%30.63 "HgN/A
8:20 am16 °FClear.3 mph93%30.63 "Hg10 mi
7:50 am16 °FClear.2 mph93%30.63 "Hg10 mi
7:20 am18 °FClear.3 mph86%30.63 "Hg10 mi
6:50 am16 °FClear.3 mph93%30.63 "Hg10 mi
6:20 am18 °FClear.2 mph93%30.63 "Hg10 mi
5:50 am18 °FClear.2 mph93%30.63 "Hg10 mi
5:20 am18 °FClear.1 mph93%30.63 "Hg10 mi
4:50 am18 °FClear.2 mph93%30.63 "Hg10 mi
4:20 am16 °FClear.1 mph93%30.63 "Hg10 mi
3:50 am18 °FClear.2 mph93%30.63 "Hg10 mi
3:20 am19 °FClear.2 mph86%30.63 "Hg10 mi
2:50 am18 °FClear.1 mph93%30.63 "Hg10 mi
2:20 am19 °FClear.3 mph86%30.63 "Hg10 mi
1:50 am23 °FPassing clouds.3 mph80%30.63 "HgN/A
1:20 am21 °FClear.5 mph86%30.63 "Hg10 mi
12:50 am21 °FClear.2 mph86%30.63 "Hg10 mi
12:20 am19 °FClear.2 mph93%30.63 "Hg10 mi
11:50 pm
Wed, Jan 18
21 °FClear.1 mph93%30.63 "Hg10 mi
11:20 pm21 °FClear.3 mph93%30.63 "Hg10 mi
10:50 pm21 °FClear.No wind93%30.66 "Hg10 mi
10:20 pm21 °FClear.No wind100%30.63 "Hg10 mi
9:50 pm21 °FClear.1 mph93%30.63 "Hg10 mi
9:20 pm21 °FClear.1 mph93%30.63 "Hg10 mi
8:50 pm25 °FPassing clouds.3 mph86%30.66 "HgN/A
8:20 pm23 °FClear.No wind93%30.66 "Hg10 mi
7:50 pm27 °FClear.1 mph80%30.63 "Hg10 mi
7:20 pm27 °FClear.2 mph80%30.63 "Hg10 mi
6:50 pm27 °FClear.No wind80%30.63 "Hg10 mi
6:20 pm28 °FClear.2 mph74%30.66 "Hg10 mi
5:50 pm30 °FClear.2 mph69%30.66 "Hg10 mi
5:20 pm30 °FClear.2 mph69%30.66 "Hg10 mi
4:50 pm30 °FSunny.3 mph69%30.66 "Hg10 mi
4:20 pm32 °FPassing clouds.3 mph64%30.66 "HgN/A
Weather by CustomWeather, © 2017

See weather overviewHow to use our weather pages